CW3175 Weather Reports


time (UTC)temp
F
wind
direction
speed
knots
gust
knots
rain 1hr
in
rain 24hr
in
rain mn
in
humidity
%
barometer
mb
20150303110515 26 148 4.3 9.6 0.00 0.00 0.00 79 1017.2
20150303105013 27 180 4.3 10.4 0.00 0.00 0.00 70 1018.2
20150303103512 28 175 2.6 7.8 0.00 0.00 0.00 65 1017.9
20150303102011 28 191 2.6 11.3 0.00 0.00 0.00 63 1017.6
20150303100503 28 158 4.3 9.6 0.00 0.00 0.00 61 1018.2
20150303095004 28 175 4.3 10.4 0.00 0.00 0.00 59 1017.9
20150303093504 28 161 4.3 9.6 0.00 0.00 0.00 59 1018.4
20150303092002 28 178 3.5 9.6 0.00 0.00 0.00 59 1018.5
20150303090502 28 190 3.5 10.4 0.00 0.00 0.00 60 1018.4
20150303084954 28 183 5.2 12.2 0.00 0.00 0.00 61 1019.2
20150303083452 28 161 3.5 9.6 0.00 0.00 0.00 62 1020.1
20150303081951 28 161 3.5 6.1 0.00 0.00 0.00 62 1020.9
20150303080452 28 180 0.0 6.1 0.00 0.00 0.00 62 1021.1
20150303074946 28 155 0.0 3.5 0.00 0.00 0.00 62 1021.0
20150303073444 28 167 2.6 7.8 0.00 0.00 0.00 61 1021.5
20150303071942 28 142 2.6 7.8 0.00 0.00 0.00 60 1022.6
20150303070440 28 172 1.7 6.1 0.00 0.00 0.00 60 1022.8
20150303064940 28 159 1.7 6.1 0.00 0.00 0.00 60 1022.8
20150303063439 28 178 2.6 6.1 0.00 0.00 0.00 61 1022.9
20150303061938 28 184 2.6 7.0 0.00 0.00 0.00 62 1023.4
20150303060432 27 168 1.7 6.1 0.00 0.00 0.00 62 1023.5
20150303054932 27 133 1.7 6.1 0.00 0.00 0.00 60 1023.4
20150303053426 27 163 2.6 7.8 0.00 0.00 0.00 59 1024.0
20150303051927 28 175 0.9 4.3 0.00 0.00 0.00 58 1024.3
20150303050423 28 186 0.9 5.2 0.00 0.00 0.00 56 1024.6
20150303044923 28 164 1.7 6.1 0.00 0.00 0.00 55 1025.2
20150303043420 27 184 1.7 5.2 0.00 0.00 0.00 55 1025.3
20150303041918 27 167 1.7 4.3 0.00 0.00 0.00 55 1025.8
20150303040419 27 185 1.7 6.1 0.00 0.00 0.00 56 1025.8
20150303034916 27 184 2.6 6.1 0.00 0.00 0.00 57 1025.9
20150303033415 27 188 1.7 7.8 0.00 0.00 0.00 58 1025.9
20150303031906 27 191 2.6 8.7 0.00 0.00 0.00 57 1026.4
20150303030405 27 252 3.5 11.3 0.00 0.00 0.00 56 1026.8
20150303024905 28 218 2.6 7.8 0.00 0.00 0.00 59 1026.9
20150303023402 28 197 2.6 9.6 0.00 0.00 0.00 58 1027.0
20150303021902 28 195 2.6 8.7 0.00 0.00 0.00 56 1027.5
20150303020403 28 191 2.6 7.8 0.00 0.00 0.00 54 1027.5
20150303014859 28 194 2.6 10.4 0.00 0.00 0.00 54 1027.7
20150303013400 28 188 2.6 8.7 0.00 0.00 0.00 54 1027.6
20150303011851 29 232 2.6 7.0 0.00 0.00 0.00 58 1028.0
20150303010350 29 231 0.9 5.2 0.00 0.00 0.00 67 1028.0
20150303004851 28 171 0.9 5.2 0.00 0.00 0.00 69 1028.2
20150303003343 28 143 0.0 4.3 0.00 0.00 0.00 70 1028.2
20150303001831 28 150 2.6 6.1 0.00 0.00 0.00 70 1028.3
20150303000323 28 173 1.7 5.2 0.00 0.00 0.00 71 1028.5
20150302234823 28 109 0.0 4.3 0.00 0.00 0.00 72 1028.6
20150302233322 28 108 0.9 4.3 0.00 0.00 0.00 72 1029.0
20150302231819 28 134 0.9 4.3 0.00 0.00 0.00 70 1029.3
20150302230306 28 134 0.0 4.3 0.00 0.00 0.00 70 1029.5
20150302224807 27 103 0.9 6.1 0.00 0.00 0.00 68 1029.7
20150302223300 28 126 0.9 5.2 0.00 0.00 0.00 68 1029.8
20150302221757 28 130 1.7 6.1 0.00 0.00 0.00 67 1030.1
20150302214749 28 110 1.7 6.1 0.00 0.00 0.00 64 1030.3
20150302213235 29 117 1.7 5.2 0.00 0.00 0.00 64 1030.5
20150302211735 28 90 1.7 7.8 0.00 0.00 0.00 63 1030.6
20150302210228 29 111 2.6 8.7 0.00 0.00 0.00 63 1030.8
20150302204727 29 103 1.7 7.8 0.00 0.00 0.00 61 1031.2
20150302203226 29 102 1.7 5.2 0.00 0.00 0.00 59 1031.3
20150302201725 29 65 1.7 5.2 0.00 0.00 0.00 59 1031.4
20150302200226 29 108 0.9 5.2 0.00 0.00 0.00 58 1031.3
20150302194718 29 108 0.9 4.3 0.00 0.00 0.00 58 1031.6
20150302193207 29 53 0.9 5.2 0.00 0.00 0.00 57 1031.9
20150302191704 30 65 0.9 4.3 0.00 0.00 0.00 57 1032.2
20150302190154 30 77 0.9 4.3 0.00 0.00 0.00 55 1032.3
20150302184640 29 107 1.7 5.2 0.00 0.00 0.00 56 1032.7
20150302183130 30 109 1.7 5.2 0.00 0.01 0.00 55 1032.9
20150302181628 30 53 0.9 4.3 0.00 0.01 0.00 49 1033.0
20150302180122 30 63 0.9 5.2 0.00 0.01 0.00 51 1033.4
20150302174620 31 0 0.0 3.5 0.00 0.01 0.00 45 1033.6
20150302173118 31 13 0.0 4.3 0.00 0.01 0.00 45 1033.5
20150302171615 29 13 0.9 4.3 0.00 0.01 0.00 48 1033.5
20150302170106 29 298 0.9 6.1 0.00 0.01 0.00 48 1033.5
20150302164600 29 312 0.9 6.1 0.00 0.01 0.00 48 1033.4
20150302163048 29 306 0.9 4.3 0.00 0.01 0.00 52 1033.4
20150302161545 27 351 1.7 7.0 0.00 0.01 0.00 51 1033.0
20150302160046 27 310 1.7 6.1 0.00 0.01 0.00 54 1033.0
20150302154531 26 11 2.6 7.8 0.00 0.01 0.00 54 1032.9
20150302153031 26 27 3.5 9.6 0.00 0.01 0.00 56 1032.9
20150302151532 26 22 1.7 7.8 0.00 0.01 0.00 57 1033.3
20150302150023 25 347 2.6 8.7 0.00 0.01 0.00 59 1033.0
20150302144522 24 311 1.7 7.8 0.00 0.01 0.00 60 1032.9
20150302143023 24 336 1.7 7.8 0.00 0.01 0.00 62 1033.1
20150302141523 23 292 0.9 5.2 0.00 0.01 0.00 64 1033.0
20150302140019 22 298 0.0 3.5 0.00 0.01 0.00 66 1032.5
20150302134519 21 296 0.0 5.2 0.00 0.01 0.00 68 1032.5
20150302133019 20 313 0.0 3.5 0.00 0.01 0.00 69 1032.5
20150302131517 19 313 0.0 3.5 0.00 0.01 0.00 71 1032.4
20150302130014 18 313 0.9 3.5 0.00 0.01 0.00 72 1032.1
20150302124512 17 292 0.0 3.5 0.00 0.01 0.00 72 1032.0
20150302123013 17 292 0.0 2.6 0.00 0.01 0.00 71 1031.9
20150302121513 18 292 0.0 3.5 0.00 0.01 0.00 70 1032.0
20150302115954 18 291 0.0 3.5 0.00 0.01 0.00 70 1031.8
20150302114443 18 300 0.9 6.1 0.00 0.01 0.00 70 1031.5
20150302112929 18 296 0.9 3.5 0.00 0.01 0.00 70 1031.5
20150302111425 18 299 0.0 2.6 0.00 0.01 0.00 68 1031.2